Tracking 19720 objects as of 26-Jun-2019
HD Live streaming from Space Station
objects crossing your sky now

SL-8 DEB

Track SL-8 DEB now!
10-day predictions


NORAD ID: 21255
Int'l Code: 1990-111C
Perigee: 740.6 km
Apogee: 760.9 km
Inclination: 74.0 °
Period: 99.7 minutes
Semi major axis: 7121 km
RCS: 0.0095 m2 (small)
Launch date: December 10, 1990
Source: Commonwealth of Independent States (former USSR) (CIS)
Launch site: PLESETSK MISSILE AND SPACE COMPLEX (PKMTR)

Note: This is SATELLITE DEBRIS
aabbcc
Your satellite tracking list
Your tracking list is empty




NASA's NSSDC Master Catalog

Two Line Element Set (TLE):
1 21255U 90111C   19176.30616061  .00000157  00000-0  53187-4 0  9995
2 21255  74.0377 118.9945 0014231 183.4106 329.9077 14.44514255497323
Source of the keplerian elements: AFSPC